Regional Weather Roundup
Issued by NWS

Home | Current Version | Previous Version | Graphics & Text | Print | Product List | Glossary Off
Versions: 1 2 3 4 5 6 7 8 9 10 11 12 13 14 15 16 17 18 19 20 21 22 23 24 25 26 27 28 29 30 31 32 33 34 35 36 37 38 39 40 41 42 43 44 45 46 47 48 49 50

000
ASUS43 KMKX 251511
RWRWI

WISCONSIN REGIONAL WEATHER ROUNDUP
NATIONAL WEATHER SERVICE MILWAUKEE/SULLIVAN WI
1000 AM CDT FRI MAY 25 2018

NOTE: "FAIR" INDICATES FEW OR NO CLOUDS BELOW 12,000 FEET WITH NO
SIGNIFICANT WEATHER AND/OR OBSTRUCTIONS TO VISIBILITY.

WIZ001-002-006>008-014>016-023>028-251600-
NORTHWEST WISCONSIN

CITY           SKY/WX    TMP DP  RH WIND       PRES   REMARKS
SUPERIOR ARPT  FAIR      74  63  67 SW9       29.73F
ASHLAND        PTSUNNY   71  62  73 SW9       29.76R
HAYWARD        FAIR      70  62  76 S8        29.79S
SIREN          FAIR      76  61  59 SW9G17    29.78R
CUMBERLAND     FAIR      70  63  78 S10       29.81S
RICE LAKE      FAIR      69  64  83 S9        29.82S
CHETEK         FAIR      67  63  87 S6        29.82S
LADYSMITH      FAIR      68  64  87 SE6       29.85R
EAU CLAIRE     FAIR      67  61  81 S15G26    29.81S
MENOMONIE      FAIR      69  63  81 S6        29.81F
NEW RICHMOND   FAIR      73  63  68 S14       29.80R
OSCEOLA        FAIR      74  64  70 S14       29.81S
$$

WIZ003>005-009-010-017-018-251600-
NORTH CENTRAL WISCONSIN

CITY           SKY/WX    TMP DP  RH WIND       PRES   REMARKS
MANITOWISH WTR CLOUDY    65  65 100 S8        29.81F
ARBOR VITAE    FAIR      71  65  83 CALM      29.83S
WOODRUFF       FAIR      71  65  83 CALM      29.83S
RHINELANDER    CLOUDY    71  64  78 W7        29.84F
EAGLE RIVER    LGT RAIN  67  63  88 CALM      29.83F
LAND O LAKES   LGT RAIN  66  64  91 CALM      29.84S
PHILLIPS       FAIR      68  64  86 SW6       29.82F
TOMAHAWK       FAIR      66  61  85 CALM      29.85S
MEDFORD        LGT RAIN  64  58  80 SW16G26   29.82F
MERRILL        CLOUDY    72  59  64 SW12G22   29.84F
$$

WIZ029-030-035-036-043>047-251600-
CENTRAL WISCONSIN

CITY           SKY/WX    TMP DP  RH WIND       PRES   REMARKS
WAUSAU         FAIR      77  59  53 W18G30    29.84F
MOSINEE        PTSUNNY   75  63  64 SW18G26   29.89S
MARSHFIELD     PTSUNNY   73  57  57 W16G22    29.89R
STEVENS POINT  FAIR      75  60  59 W16G22    29.89R
WAUPACA        FAIR      80  62  54 SW12      29.88S HX  81
WAUTOMA        FAIR      78  63  59 W12       29.89S HX  80
WISC RAPIDS    FAIR      78  59  51 W16G25    29.91R
CAMP DOUGLAS   FAIR      77  63  62 NW7       29.91R
$$

WIZ011>013-019>022-031-037>040-048>050-251600-
NORTHEAST WISCONSIN

CITY           SKY/WX    TMP DP  RH WIND       PRES   REMARKS
ANTIGO         FAIR      75  62  63 W12       29.85F
SHAWANO        FAIR      81  66  59 SW10      29.84F HX  83
OCONTO         FAIR      83  65  54 W13G23    29.82F HX  85
STURGEON BAY   FAIR      80  65  59 SW14      29.84F HX  82
GREEN BAY      FAIR      81  65  58 W14       29.85F HX  83
MANITOWOC      FAIR      82  65  56 W14       29.86F HX  84
APPLETON       PTSUNNY   79  61  53 W16       29.86S HX  80
CLINTONVILLE   FAIR      81  62  53 W10       29.85S HX  82
OSHKOSH        FAIR      81  66  60 W8        29.87F HX  83
$$

WIZ032>034-041-042-053>061-251600-
SOUTHWEST WISCONSIN

CITY           SKY/WX    TMP DP  RH WIND       PRES   REMARKS
LA CROSSE      FAIR      78  64  61 E8        29.87F HX  80
SPARTA         PTSUNNY   73  61  66 CALM      29.92S
VIROQUA        CLOUDY    76  67  76 NW8       29.92S
BOSCOBEL       FAIR      80  66  62 VRB5      29.89S HX  82
PRAIRIE DU CHI FAIR      79  65  61 S3        29.88S HX  81
PLATTEVILLE    FAIR      77  69  77 SW7       29.92R
$$

WIZ056-057-062-063-064-067-068-251600-
SOUTH CENTRAL WISCONSIN

CITY           SKY/WX    TMP DP  RH WIND       PRES   REMARKS
REEDSBURG      PTSUNNY   78  67  70 SW7       29.90S
BARABOO/DELLS  PTSUNNY   80  63  55 W9        29.91S HX  81
LONE ROCK      FAIR      79  67  66 VRB3      29.90S HX  81
MINERAL POINT  FAIR      77  68  73 SW3       29.92S
MADISON        PTSUNNY   80  64  58 SW6       29.90S HX  82
MIDDLETON      FAIR      83  65  55 W9        29.91S HX  85
WATERTOWN      FAIR      79  65  62 SW10      29.91R HX  80
MONROE         FAIR      81  61  50 S16       29.92S HX  81
JANESVILLE     PTSUNNY   82  63  51 SW12G17   29.91F HX  83
$$

WIZ051-052-058>065-066-070>072-251600-
SOUTHEAST WISCONSIN

CITY           SKY/WX    TMP DP  RH WIND       PRES   REMARKS
MILWAUKEE      FAIR      82  61  48 SW10      29.90F HX  83
WAUKESHA       SUNNY     81  61  50 W9        29.93S HX  81
MILWAUKEE/TIMM SUNNY     81  57  44 W10       29.91F HX  81
RACINE         FAIR      82  62  50 W9        29.92F HX  83
BURLINGTON     FAIR      81  63  53 SW8       29.92S HX  82
KENOSHA        FAIR      80  63  55 SW12      29.92F HX  81
FOND DU LAC    FAIR      80  64  58 W12       29.89S HX  82
SHEBOYGAN      FAIR      82  62  50 W15       29.88S HX  83
WEST BEND      FAIR      81  61  50 W6        29.90S HX  81
JUNEAU         FAIR      79  65  62 SW10      29.92S HX  80
$$

LSZ147-162-251600-
LAKE SUPERIOR

STATION/POSITION TIME  TEMP    WIND        PRES    WAVE
                       AIR SEA DIR/SP/G            HT/PER
                 (UTC) (F)     (DEG/KT/KT) (MB)    (FT/S)
W MID LAKE BUOY  1450   47 36  220/  8/  8 1006.8F   0
DEVILS ISLAND    1500   56     210/  5/  5 1006.9F
SAXON HARBOR     1500   64     270/  2/ 18 1006.8
$$

LMZ867-665-643>646-251600-
LAKE MICHIGAN

STATION/POSITION TIME  TEMP    WIND        PRES    WAVE
                       AIR SEA DIR/SP/G            HT/PER
                 (UTC) (F)     (DEG/KT/KT) (MB)    (FT/S)
N MID LAKE BUOY  1450   42 38  180/  6/ 10 1010.7R   1/ 4
NORTHPORT PIER   1440          100/  2/  3 1010.2S
KEWAUNEE LAKESHO 1448          270/ 10/ 15 1010.1F
SHEBOYGAN LAKESH 1500   73     210/ 11/ 15 1011.1F
PORT WASHINGTON  1440   66     170/  3/  6 1012.9F
ATWATER BUOY     1407   63 50  150/  6/  6 1012.8    1
MILWAUKEE LAKESH 1450   80     240/  9/ 12   N/A
S MID LAKE BUOY  1450   47 39  190/ 10/ 10 1013.7F   1
KENOSHA   LAKESH 1500   81                 1012.5
$$

TC  - TEMPERATURE IN CELSIUS
VSB - VISIBILITY IN STATUTE MILES
WCI - WIND CHILL INDEX
HX  - HEAT INDEX





USA.gov is the U.S. government's official web portal to all federal, state and local government web resources and services.